QPF
0.00 0.00 0.00 0.00 0.00 0.00 0.00 0.00 0.00 0.00 0.00 0.00 0.00 0.00 0.00 0.00 0.00 0.00 0.00 0.00 0.00 0.00 0.00 0.00 0.00 0.03 0.04 0.01 0.01 0.00 0.01 0.02 0.01 0.00 0.00 0.00 0.00 0.00 0.00 0.00 0.01 0.00 0.00 0.00 0.00 0.00 0.00 0.00 0.00
0.00 0.00 0.00 0.00 0.00 0.00 0.00 0.00 0.00 0.00 0.00 0.00 0.00 0.00 0.00 0.00 0.00 0.00 0.00 0.00 0.00 0.00 0.00 0.00 0.00 0.01 0.04 0.03 0.04 0.02 0.02 0.02 0.01 0.00 0.00 0.00 0.00 0.00 0.00 0.00 0.01 0.01 0.00 0.00 0.00 0.00 0.00 0.00 0.00
0.00 0.00 0.00 0.00 0.00 0.00 0.00 0.00 0.00 0.00 0.00 0.00 0.00 0.00 0.00 0.00 0.00 0.00 0.00 0.00 0.00 0.00 0.00 0.00 0.00 0.00 0.01 0.02 0.02 0.03 0.03 0.03 0.02 0.01 0.00 0.00 0.01 0.01 0.00 0.00 0.00 0.01 0.01 0.00 0.00 0.00 0.01 0.00 0.00
0.00 0.00 0.00 0.00 0.00 0.00 0.00 0.00 0.00 0.00 0.00 0.00 0.00 0.00 0.00 0.00 0.00 0.00 0.00 0.00 0.00 0.00 0.00 0.00 0.00 0.00 0.00 0.01 0.03 0.04 0.04 0.02 0.02 0.02 0.01 0.01 0.06 0.10 0.03 0.01 0.01 0.00 0.01 0.06 0.02 0.00 0.02 0.01 0.00
0.00 0.00 0.00 0.00 0.00 0.00 0.00 0.00 0.00 0.00 0.00 0.00 0.00 0.00 0.00 0.00 0.00 0.00 0.00 0.00 0.00 0.00 0.00 0.00 0.00 0.00 0.02 0.02 0.01 0.02 0.03 0.03 0.02 0.03 0.03 0.02 0.04 0.05 0.03 0.02 0.01 0.00 0.01 0.03 0.03 0.01 0.00 0.00 0.00
0.00 0.00 0.00 0.00 0.00 0.00 0.00 0.00 0.00 0.00 0.00 0.00 0.00 0.00 0.00 0.00 0.00 0.00 0.00 0.00 0.00 0.00 0.00 0.00 0.00 0.00 0.00 0.01 0.03 0.02 0.02 0.04 0.05 0.04 0.05 0.07 0.07 0.05 0.01 0.01 0.02 0.01 0.01 0.02 0.01 0.01 0.00 0.00 0.00
0.00 0.00 0.00 0.00 0.00 0.00 0.00 0.00 0.00 0.00 0.00 0.00 0.00 0.00 0.00 0.00 0.00 0.00 0.00 0.00 0.00 0.00 0.00 0.00 0.00 0.00 0.00 0.00 0.01 0.05 0.03 0.01 0.02 0.03 0.03 0.04 0.09 0.11 0.08 0.03 0.01 0.01 0.01 0.01 0.01 0.00 0.00 0.00 0.00
0.00 0.00 0.00 0.00 0.00 0.00 0.00 0.00 0.00 0.00 0.00 0.00 0.00 0.00 0.00 0.00 0.00 0.00 0.00 0.00 0.00 0.00 0.00 0.00 0.00 0.00 0.00 0.00 0.00 0.00 0.05 0.03 0.01 0.01 0.03 0.02 0.04 0.06 0.05 0.05 0.02 0.01 0.00 0.00 0.00 0.00 0.00 0.00 0.00
0.00 0.00 0.00 0.00 0.00 0.00 0.00 0.00 0.00 0.00 0.00 0.00 0.00 0.00 0.00 0.00 0.00 0.00 0.00 0.00 0.00 0.00 0.00 0.00 0.00 0.00 0.00 0.00 0.00 0.00 0.00 0.04 0.05 0.01 0.01 0.04 0.03 0.02 0.01 0.00 0.00 0.01 0.01 0.00 0.00 0.00 0.00 0.00 0.00
0.00 0.00 0.00 0.00 0.00 0.00 0.00 0.00 0.00 0.00 0.00 0.00 0.00 0.00 0.00 0.00 0.00 0.00 0.00 0.00 0.00 0.00 0.00 0.00 0.00 0.00 0.00 0.00 0.00 0.00 0.00 0.00 0.03 0.06 0.02 0.01 0.00 0.01 0.01 0.00 0.00 0.01 0.00 0.00 0.00 0.00 0.00 0.00 0.00
0.00 0.00 0.00 0.00 0.00 0.00 0.00 0.00 0.00 0.00 0.00 0.00 0.00 0.00 0.00 0.00 0.00 0.00 0.00 0.00 0.00 0.00 0.00 0.00 0.00 0.00 0.00 0.00 0.00 0.00 0.00 0.00 0.00 0.03 0.05 0.05 0.01 0.00 0.01 0.00 0.01 0.01 0.00 0.00 0.00 0.00 0.00 0.00 0.00
0.00 0.00 0.00 0.00 0.00 0.00 0.00 0.00 0.00 0.00 0.00 0.00 0.00 0.00 0.00 0.00 0.00 0.00 0.00 0.00 0.00 0.00 0.00 0.00 0.00 0.00 0.00 0.00 0.00 0.00 0.00 0.00 0.00 0.01 0.05 0.07 0.04 0.01 0.00 0.00 0.00 0.00 0.00 0.00 0.00 0.00 0.00 0.00 0.00
0.00 0.00 0.00 0.00 0.00 0.00 0.00 0.00 0.00 0.00 0.00 0.00 0.00 0.00 0.00 0.00 0.00 0.00 0.00 0.00 0.00 0.00 0.00 0.00 0.00 0.00 0.00 0.00 0.00 0.00 0.00 0.00 0.00 0.00 0.00 0.04 0.07 0.05 0.06 0.04 0.03 0.00 0.00 0.00 0.00 0.00 0.00 0.00 0.00
0.00 0.00 0.00 0.00 0.00 0.00 0.00 0.00 0.00 0.00 0.00 0.00 0.00 0.00 0.00 0.00 0.00 0.00 0.00 0.00 0.00 0.00 0.00 0.00 0.00 0.00 0.00 0.00 0.00 0.00 0.00 0.00 0.00 0.00 0.00 0.00 0.03 0.09 0.09 0.09 0.06 0.02 0.00 0.00 0.00 0.00 0.00 0.00 0.00
0.00 0.00 0.00 0.00 0.00 0.00 0.00 0.00 0.00 0.00 0.00 0.00 0.00 0.00 0.00 0.00 0.00 0.00 0.00 0.00 0.00 0.00 0.00 0.00 0.00 0.00 0.00 0.00 0.00 0.00 0.00 0.00 0.00 0.00 0.00 0.00 0.00 0.03 0.06 0.08 0.10 0.06 0.03 0.02 0.01 0.00 0.00 0.00 0.00
0.00 0.00 0.00 0.00 0.00 0.00 0.00 0.00 0.00 0.00 0.00 0.00 0.00 0.00 0.00 0.00 0.00 0.00 0.00 0.00 0.00 0.00 0.00 0.00 0.00 0.00 0.00 0.00 0.00 0.00 0.00 0.00 0.00 0.00 0.00 0.00 0.00 0.00 0.03 0.04 0.06 0.08 0.07 0.06 0.04 0.02 0.00 0.00 0.00
0.00 0.00 0.00 0.00 0.00 0.00 0.00 0.00 0.00 0.00 0.00 0.00 0.00 0.00 0.00 0.00 0.00 0.00 0.00 0.00 0.00 0.00 0.00 0.00 0.00 0.00 0.00 0.00 0.00 0.00 0.00 0.00 0.00 0.00 0.00 0.00 0.00 0.00 0.00 0.02 0.03 0.05 0.05 0.06 0.08 0.06 0.02 0.02 0.01
0.00 0.00 0.00 0.00 0.00 0.00 0.00 0.00 0.00 0.00 0.00 0.00 0.00 0.00 0.00 0.00 0.00 0.00 0.00 0.00 0.00 0.00 0.00 0.00 0.00 0.00 0.00 0.00 0.00 0.00 0.00 0.00 0.00 0.00 0.00 0.00 0.00 0.00 0.00 0.01 0.04 0.04 0.05 0.06 0.06 0.06 0.03 0.03 0.07
0.00 0.00 0.00 0.00 0.00 0.00 0.00 0.00 0.00 0.00 0.00 0.00 0.00 0.00 0.00 0.00 0.00 0.00 0.00 0.00 0.00 0.00 0.00 0.00 0.00 0.00 0.00 0.00 0.00 0.00 0.00 0.00 0.00 0.00 0.00 0.00 0.00 0.00 0.00 0.01 0.04 0.06 0.04 0.05 0.04 0.03 0.02 0.02 0.04
0.00 0.00 0.00 0.00 0.00 0.00 0.00 0.00 0.00 0.00 0.00 0.00 0.00 0.00 0.00 0.00 0.00 0.00 0.00 0.00 0.00 0.00 0.00 0.00 0.00 0.00 0.00 0.00 0.00 0.00 0.00 0.00 0.00 0.00 0.00 0.00 0.00 0.00 0.00 0.01 0.03 0.03 0.05 0.05 0.05 0.04 0.02 0.01 0.01
0.00 0.00 0.00 0.00 0.00 0.00 0.00 0.00 0.00 0.00 0.00 0.00 0.00 0.00 0.00 0.00 0.00 0.00 0.00 0.00 0.00 0.00 0.00 0.00 0.00 0.00 0.00 0.00 0.00 0.00 0.00 0.00 0.00 0.00 0.00 0.00 0.00 0.00 0.00 0.00 0.03 0.05 0.07 0.08 0.05 0.06 0.03 0.01 0.00
0.00 0.00 0.00 0.00 0.00 0.00 0.00 0.00 0.00 0.00 0.00 0.00 0.00 0.00 0.00 0.00 0.00 0.00 0.00 0.00 0.00 0.00 0.00 0.00 0.00 0.00 0.00 0.00 0.00 0.00 0.00 0.00 0.00 0.00 0.00 0.00 0.00 0.00 0.00 0.00 0.01 0.02 0.03 0.03 0.06 0.06 0.04 0.02 0.00
0.00 0.00 0.00 0.00 0.00 0.00 0.00 0.00 0.00 0.00 0.00 0.00 0.00 0.00 0.00 0.00 0.00 0.00 0.00 0.00 0.00 0.00 0.00 0.00 0.00 0.00 0.00 0.00 0.00 0.00 0.00 0.00 0.00 0.00 0.00 0.00 0.00 0.00 0.00 0.00 0.00 0.01 0.02 0.01 0.02 0.03 0.03 0.02 0.01
0.00 0.00 0.00 0.00 0.00 0.00 0.00 0.00 0.00 0.00 0.00 0.00 0.00 0.00 0.00 0.00 0.00 0.00 0.00 0.00 0.00 0.00 0.00 0.00 0.00 0.00 0.00 0.00 0.00 0.00 0.00 0.00 0.00 0.00 0.00 0.00 0.00 0.01 0.00 0.00 0.00 0.02 0.02 0.02 0.01 0.01 0.02 0.02 0.02
0.00 0.00 0.00 0.00 0.00 0.00 0.00 0.00 0.00 0.00 0.00 0.00 0.00 0.00 0.00 0.00 0.00 0.00 0.00 0.00 0.00 0.00 0.00 0.00 0.00 0.00 0.00 0.00 0.00 0.00 0.00 0.00 0.00 0.00 0.01 0.00 0.01 0.00 0.00 0.00 0.00 0.01 0.05 0.05 0.03 0.01 0.01 0.01 0.01
0.00 0.00 0.00 0.00 0.00 0.00 0.00 0.00 0.00 0.00 0.00 0.00 0.00 0.00 0.00 0.00 0.00 0.00 0.00 0.00 0.00 0.00 0.00 0.00 0.00 0.00 0.00 0.00 0.00 0.00 0.00 0.01 0.01 0.02 0.03 0.02 0.00 0.00 0.00 0.00 0.00 0.00 0.02 0.04 0.04 0.02 0.01 0.00 0.01
0.00 0.00 0.00 0.00 0.00 0.00 0.00 0.00 0.00 0.00 0.00 0.00 0.00 0.00 0.00 0.00 0.00 0.00 0.00 0.00 0.00 0.00 0.00 0.00 0.00 0.00 0.00 0.00 0.00 0.00 0.00 0.01 0.01 0.01 0.00 0.01 0.00 0.00 0.00 0.00 0.00 0.00 0.00 0.02 0.03 0.02 0.01 0.00 0.00
0.00 0.00 0.00 0.00 0.00 0.00 0.00 0.00 0.00 0.00 0.00 0.00 0.00 0.00 0.00 0.00 0.00 0.00 0.00 0.00 0.00 0.00 0.00 0.00 0.00 0.00 0.00 0.00 0.00 0.00 0.00 0.00 0.00 0.00 0.00 0.00 0.00 0.00 0.00 0.00 0.00 0.00 0.00 0.01 0.03 0.03 0.01 0.01 0.00
0.00 0.00 0.00 0.00 0.00 0.00 0.00 0.00 0.00 0.00 0.00 0.00 0.00 0.00 0.00 0.00 0.00 0.00 0.00 0.00 0.00 0.00 0.00 0.00 0.00 0.00 0.00 0.00 0.00 0.00 0.00 0.00 0.00 0.00 0.00 0.00 0.00 0.00 0.00 0.00 0.00 0.00 0.00 0.01 0.05 0.04 0.01 0.00 0.00
0.00 0.00 0.00 0.00 0.00 0.00 0.00 0.00 0.00 0.00 0.00 0.00 0.00 0.00 0.00 0.00 0.00 0.00 0.00 0.00 0.00 0.00 0.00 0.00 0.00 0.00 0.00 0.00 0.00 0.00 0.00 0.00 0.00 0.00 0.00 0.00 0.00 0.00 0.00 0.00 0.00 0.00 0.00 0.00 0.03 0.06 0.03 0.00 0.00
MSLP
1015.20 1014.64 1014.58 1014.80 1016.03 1016.13 1015.59 1014.18 1012.78 1012.54 1012.48 1012.50 1012.07 1012.31 1013.04 1013.87 1014.56 1016.10 1016.27 1016.03 1015.90 1015.56 1015.13 1014.73 1014.37 1013.92 1013.51 1013.67 1013.79 1014.01 1014.16 1014.33 1014.46 1014.71 1014.99 1015.13 1015.28 1015.54 1015.86 1016.06 1016.21 1016.16 1016.43 1016.54 1016.69 1016.97 1017.41 1017.61 1017.68
1015.27 1014.73 1014.56 1015.19 1016.08 1016.29 1015.26 1014.13 1013.92 1013.68 1013.25 1012.69 1012.36 1012.61 1013.27 1014.92 1015.33 1016.06 1016.37 1016.19 1016.03 1015.75 1015.35 1015.18 1014.77 1014.25 1013.94 1013.49 1013.68 1013.93 1014.09 1014.18 1014.46 1014.58 1014.61 1014.86 1015.08 1015.46 1015.78 1015.91 1016.05 1016.29 1016.30 1016.57 1016.68 1016.88 1017.21 1017.67 1017.71
1015.32 1015.17 1015.71 1015.99 1016.47 1016.21 1015.35 1014.83 1014.22 1014.05 1013.57 1013.41 1013.67 1013.77 1014.48 1015.85 1016.07 1016.58 1016.69 1016.36 1015.99 1016.07 1015.72 1015.45 1015.22 1014.80 1014.36 1013.98 1013.59 1013.77 1013.91 1014.07 1014.26 1014.32 1014.51 1014.69 1014.93 1015.26 1015.59 1015.78 1016.00 1016.14 1016.18 1016.41 1016.57 1016.82 1017.14 1017.50 1017.73
1015.36 1015.47 1016.15 1016.38 1016.40 1015.45 1015.75 1015.69 1014.85 1014.54 1014.18 1014.06 1014.49 1015.25 1015.89 1016.31 1016.56 1017.16 1016.86 1016.45 1016.19 1015.92 1015.71 1015.52 1015.48 1015.28 1015.06 1014.53 1014.13 1013.70 1013.72 1013.86 1014.11 1014.31 1014.42 1014.55 1014.73 1014.98 1015.39 1015.62 1015.91 1016.00 1016.08 1016.16 1016.35 1016.65 1017.05 1017.49 1017.73
1015.53 1016.27 1016.77 1016.80 1016.41 1015.97 1016.49 1016.12 1015.63 1015.56 1015.50 1015.65 1015.32 1016.12 1016.51 1017.18 1017.06 1017.00 1016.86 1016.58 1016.33 1016.09 1015.81 1015.64 1015.56 1015.60 1015.42 1015.08 1014.71 1014.23 1013.74 1013.75 1013.90 1014.11 1014.20 1014.34 1014.58 1014.76 1014.97 1015.31 1015.65 1015.78 1015.94 1016.12 1016.11 1016.39 1016.87 1017.29 1017.58
1016.30 1016.68 1017.42 1017.30 1016.74 1016.81 1016.98 1016.94 1016.56 1016.72 1016.59 1016.53 1016.41 1016.54 1016.71 1017.07 1016.77 1017.11 1016.83 1016.57 1016.33 1016.27 1015.95 1015.99 1015.82 1015.67 1015.39 1015.18 1015.02 1014.66 1014.11 1013.74 1013.81 1013.82 1013.92 1014.16 1014.40 1014.60 1014.74 1014.93 1015.12 1015.52 1015.69 1015.93 1016.05 1016.27 1016.67 1017.09 1017.41
1016.66 1017.41 1017.58 1017.26 1017.02 1017.27 1017.59 1017.38 1017.51 1017.47 1017.18 1017.17 1016.97 1017.03 1016.97 1017.09 1017.16 1016.90 1016.82 1016.79 1016.66 1016.47 1016.40 1016.34 1016.08 1015.94 1015.75 1015.45 1015.11 1014.86 1014.51 1013.92 1013.67 1013.60 1013.69 1013.88 1014.13 1014.36 1014.53 1014.66 1014.74 1014.99 1015.39 1015.71 1015.97 1016.28 1016.52 1016.94 1017.24
1017.17 1017.72 1018.02 1017.77 1017.92 1018.30 1018.28 1017.96 1017.93 1017.94 1017.62 1017.21 1016.88 1017.36 1017.43 1017.63 1017.49 1017.07 1016.88 1016.92 1017.04 1016.99 1016.92 1016.69 1016.40 1016.15 1015.90 1015.65 1015.27 1014.87 1014.59 1014.11 1013.73 1013.42 1013.42 1013.65 1013.79 1014.05 1014.22 1014.40 1014.52 1014.75 1014.97 1015.24 1015.67 1016.08 1016.42 1016.65 1017.08
1017.33 1018.34 1018.96 1018.88 1018.80 1018.90 1018.85 1018.87 1018.54 1018.20 1017.96 1017.74 1017.39 1017.45 1017.56 1017.38 1017.06 1017.29 1017.56 1017.62 1017.58 1017.47 1017.26 1016.92 1016.72 1016.33 1015.95 1015.56 1015.23 1014.92 1014.48 1014.04 1013.78 1013.26 1013.20 1013.30 1013.43 1013.56 1013.83 1014.06 1014.26 1014.46 1014.77 1014.98 1015.21 1015.72 1016.16 1016.53 1016.94
1018.40 1019.06 1019.22 1019.16 1019.24 1019.50 1019.36 1019.39 1019.19 1018.84 1018.58 1018.22 1017.83 1017.65 1017.48 1017.40 1017.57 1017.93 1018.16 1018.34 1018.19 1018.11 1017.86 1017.65 1017.25 1016.95 1016.42 1015.66 1015.20 1014.90 1014.43 1013.89 1013.63 1013.20 1012.88 1012.91 1013.05 1013.08 1013.27 1013.58 1013.84 1014.02 1014.42 1014.79 1015.03 1015.35 1015.79 1016.32 1016.77
1019.30 1019.54 1019.65 1019.64 1019.58 1019.76 1019.71 1019.58 1019.46 1019.37 1019.04 1018.35 1018.37 1018.07 1017.67 1017.79 1017.85 1018.30 1018.66 1018.78 1018.76 1018.60 1018.24 1018.02 1017.64 1017.20 1016.82 1016.20 1015.48 1014.85 1014.43 1014.00 1013.54 1013.27 1012.57 1012.32 1012.48 1012.74 1012.93 1013.14 1013.48 1013.79 1014.04 1014.50 1014.89 1015.28 1015.68 1016.11 1016.61
1019.71 1019.72 1019.73 1019.68 1019.69 1019.87 1019.94 1019.90 1019.82 1019.54 1019.08 1018.41 1018.39 1017.94 1017.75 1017.87 1018.26 1018.70 1018.85 1018.83 1018.75 1018.58 1018.37 1018.09 1017.80 1017.36 1016.88 1016.41 1015.72 1015.05 1014.51 1013.98 1013.51 1013.10 1012.80 1012.12 1011.96 1012.14 1012.32 1012.54 1012.77 1013.13 1013.51 1014.06 1014.65 1015.18 1015.60 1015.91 1016.20
1020.06 1020.19 1019.83 1019.55 1019.63 1019.79 1019.93 1020.09 1020.19 1019.12 1018.56 1018.08 1017.86 1017.83 1018.06 1018.10 1018.51 1018.69 1018.68 1018.73 1018.63 1018.55 1018.40 1018.16 1017.79 1017.46 1016.81 1016.25 1015.69 1015.02 1014.38 1013.89 1013.38 1012.96 1012.64 1012.49 1011.73 1011.57 1011.56 1011.80 1012.04 1012.29 1012.65 1013.10 1013.86 1014.54 1015.21 1015.65 1015.95
1020.73 1020.57 1020.07 1019.66 1019.67 1019.78 1020.03 1019.81 1020.08 1018.63 1017.87 1017.75 1017.82 1017.87 1017.93 1018.42 1018.51 1018.60 1018.60 1018.61 1018.56 1018.32 1018.05 1017.79 1017.62 1017.20 1016.66 1016.20 1015.67 1015.12 1014.38 1013.73 1013.17 1012.80 1012.40 1012.17 1012.00 1011.54 1010.97 1011.21 1011.36 1011.55 1011.68 1011.98 1012.84 1013.36 1014.43 1015.17 1015.52
1021.06 1021.11 1020.25 1019.97 1019.80 1019.84 1019.92 1019.80 1019.63 1018.54 1018.30 1017.93 1017.69 1017.57 1018.19 1018.37 1018.41 1018.57 1018.60 1018.53 1018.33 1018.08 1017.85 1017.63 1017.23 1016.77 1016.56 1016.10 1015.45 1014.82 1014.18 1013.44 1013.00 1012.48 1012.19 1011.87 1011.72 1011.50 1011.05 1010.52 1010.58 1010.60 1010.83 1011.41 1011.78 1012.72 1013.52 1014.56 1015.03
1021.62 1021.81 1021.70 1020.54 1020.15 1019.83 1020.13 1019.68 1018.74 1018.56 1018.53 1018.22 1017.85 1018.06 1018.24 1018.38 1018.37 1018.55 1018.45 1018.44 1018.25 1017.97 1017.69 1017.33 1016.96 1016.57 1016.08 1015.70 1015.08 1014.35 1013.70 1013.15 1012.53 1012.10 1011.74 1011.51 1011.31 1011.13 1010.84 1010.51 1010.01 1010.56 1009.21 1010.16 1010.91 1011.68 1012.64 1013.50 1014.27
1023.43 1023.66 1023.00 1021.88 1020.70 1020.68 1020.53 1019.39 1018.07 1018.38 1018.22 1018.21 1018.11 1018.17 1018.26 1018.50 1018.71 1018.67 1018.56 1018.41 1018.19 1017.85 1017.54 1017.13 1016.85 1016.41 1015.88 1015.29 1014.67 1013.97 1013.25 1012.72 1012.09 1011.61 1011.29 1010.96 1010.84 1010.70 1010.47 1010.07 1010.02 1009.94 1010.31 1010.39 1009.70 1010.43 1011.70 1012.58 1013.42
1024.47 1024.65 1023.70 1023.03 1021.61 1021.41 1020.68 1019.68 1017.79 1018.08 1018.18 1018.23 1018.12 1018.28 1018.63 1018.83 1018.82 1018.68 1018.47 1018.24 1018.02 1017.73 1017.44 1017.09 1016.73 1016.35 1015.76 1015.11 1014.58 1013.84 1013.00 1012.14 1011.51 1011.08 1010.69 1010.36 1010.19 1010.24 1010.04 1009.70 1009.30 1009.25 1009.83 1009.85 1010.05 1010.43 1010.77 1011.63 1012.68
1024.22 1024.44 1024.13 1023.20 1022.08 1021.98 1020.87 1019.81 1018.40 1017.89 1017.80 1018.09 1018.31 1018.58 1018.81 1019.03 1018.81 1018.69 1018.44 1018.25 1017.96 1017.70 1017.32 1016.92 1016.54 1016.10 1015.48 1014.86 1014.42 1013.71 1012.89 1012.20 1011.08 1010.47 1009.91 1009.65 1009.43 1009.50 1009.55 1009.23 1008.96 1008.79 1008.68 1008.67 1009.60 1010.22 1011.01 1011.56 1012.43
1024.16 1024.47 1024.22 1023.38 1022.67 1023.04 1021.38 1020.07 1018.12 1017.61 1017.77 1018.02 1018.41 1018.74 1019.20 1019.27 1019.10 1018.84 1018.58 1018.25 1018.03 1017.76 1017.40 1016.68 1016.15 1015.63 1015.05 1014.79 1014.15 1013.38 1012.47 1011.62 1011.02 1009.95 1009.34 1008.83 1008.66 1008.69 1008.96 1008.85 1008.61 1008.37 1008.13 1008.54 1008.46 1009.16 1010.18 1011.01 1011.34
1024.11 1024.49 1024.47 1024.61 1023.98 1023.30 1022.61 1020.99 1018.80 1018.09 1017.90 1018.17 1018.55 1019.26 1019.62 1019.67 1019.44 1018.88 1018.64 1018.40 1018.07 1017.67 1017.17 1016.50 1015.68 1015.28 1014.64 1014.32 1013.55 1012.54 1011.67 1010.87 1010.08 1009.33 1008.77 1008.23 1007.95 1007.96 1008.32 1008.45 1008.35 1008.21 1008.11 1007.70 1007.77 1007.84 1008.88 1009.92 1010.74
1024.33 1024.09 1024.47 1025.07 1025.84 1025.63 1024.28 1023.22 1020.26 1018.81 1018.66 1018.85 1019.36 1019.79 1019.99 1020.05 1019.66 1019.43 1018.97 1018.46 1017.96 1017.33 1016.92 1016.28 1015.39 1014.77 1014.14 1013.72 1012.97 1012.04 1011.05 1010.03 1009.27 1008.73 1008.09 1007.53 1007.21 1007.35 1007.62 1007.91 1007.95 1007.75 1007.65 1007.53 1007.50 1007.73 1008.05 1008.78 1009.90
1024.46 1024.32 1024.80 1025.89 1027.34 1027.23 1025.82 1025.39 1020.97 1019.78 1019.60 1019.63 1019.89 1020.15 1020.23 1020.18 1020.12 1019.68 1019.21 1018.63 1017.91 1017.19 1016.66 1015.99 1015.10 1014.44 1013.74 1013.29 1012.48 1011.41 1010.18 1009.19 1008.38 1007.99 1007.64 1007.07 1006.62 1006.69 1006.99 1007.25 1007.49 1007.31 1007.10 1006.99 1007.08 1007.59 1007.60 1007.77 1008.67
1024.66 1024.96 1025.75 1026.87 1028.06 1028.40 1026.97 1026.00 1022.10 1020.69 1019.92 1020.14 1020.29 1020.39 1020.48 1020.36 1020.12 1019.81 1019.27 1018.54 1017.84 1017.14 1016.54 1015.78 1014.79 1013.87 1013.26 1012.69 1011.77 1010.63 1009.27 1007.72 1007.41 1007.23 1006.98 1006.34 1006.02 1006.08 1006.44 1006.74 1006.92 1006.91 1006.58 1006.48 1006.22 1006.58 1006.60 1006.79 1007.62
1025.48 1026.81 1028.49 1029.22 1029.53 1028.92 1027.35 1026.38 1022.27 1020.81 1020.47 1020.56 1020.91 1020.74 1020.60 1020.23 1020.03 1019.41 1018.80 1018.24 1017.64 1016.97 1016.25 1015.44 1014.47 1013.57 1012.86 1012.07 1011.13 1010.01 1008.30 1006.97 1006.82 1006.57 1006.45 1005.80 1005.64 1005.75 1006.08 1006.27 1006.44 1006.47 1006.30 1006.04 1006.04 1005.78 1005.83 1006.18 1006.64
1026.84 1027.90 1030.06 1031.21 1030.96 1029.72 1027.98 1026.22 1021.88 1020.72 1020.67 1020.85 1020.96 1020.76 1020.45 1020.09 1019.60 1019.12 1018.62 1017.96 1017.40 1016.72 1015.97 1015.27 1014.34 1013.29 1012.44 1011.56 1010.67 1009.66 1008.10 1007.15 1006.64 1006.34 1006.11 1005.77 1005.75 1005.74 1005.78 1006.00 1006.24 1006.23 1006.08 1005.95 1006.07 1005.19 1005.10 1005.45 1005.76
1027.54 1028.59 1029.28 1030.88 1031.56 1030.92 1028.11 1025.01 1022.05 1021.40 1021.27 1021.25 1021.29 1020.67 1020.61 1020.17 1019.58 1019.07 1018.47 1017.85 1017.21 1016.50 1015.68 1015.00 1014.04 1012.97 1011.98 1011.11 1010.33 1009.39 1008.14 1007.30 1006.77 1006.44 1006.14 1006.18 1006.00 1005.95 1006.02 1006.14 1006.15 1005.97 1005.81 1005.70 1005.35 1004.90 1004.82 1004.77 1005.20
1027.52 1028.57 1029.83 1031.20 1031.80 1031.15 1028.21 1026.09 1023.56 1022.55 1022.23 1022.15 1021.53 1021.50 1020.92 1020.28 1019.63 1018.91 1018.44 1017.87 1017.21 1016.50 1015.64 1014.80 1013.99 1013.05 1011.99 1010.95 1010.05 1009.11 1008.07 1007.34 1007.01 1006.47 1006.41 1006.51 1006.35 1006.32 1006.29 1006.41 1006.30 1006.02 1005.67 1005.25 1005.37 1005.16 1004.31 1004.48 1004.80
1028.03 1028.72 1029.70 1030.59 1030.96 1031.01 1029.29 1024.94 1022.16 1022.22 1022.64 1022.75 1022.23 1021.75 1021.03 1020.64 1019.52 1018.89 1018.35 1017.94 1017.35 1016.60 1015.80 1014.96 1014.00 1013.09 1012.11 1011.18 1010.08 1009.00 1008.12 1007.46 1007.04 1006.83 1007.01 1006.80 1006.80 1006.69 1006.47 1006.57 1006.50 1006.09 1005.77 1005.34 1004.58 1003.91 1003.60 1003.75 1004.41
1026.49 1027.40 1028.37 1029.61 1030.02 1029.70 1028.94 1023.97 1021.18 1021.68 1022.31 1022.46 1022.20 1021.69 1021.09 1020.53 1019.59 1018.91 1018.40 1017.88 1017.35 1016.77 1016.00 1015.16 1014.23 1013.24 1012.26 1011.21 1010.16 1009.19 1008.31 1007.78 1007.47 1007.40 1007.17 1006.95 1007.01 1006.89 1006.62 1006.54 1006.54 1006.20 1005.86 1005.50 1004.99 1004.35 1003.20 1003.87 1004.72
Thickness
5680 5686 5687 5682 5657 5650 5652 5669 5695 5692 5690 5697 5702 5696 5688 5684 5680 5667 5682 5688 5691 5695 5699 5703 5707 5710 5713 5714 5714 5713 5713 5713 5712 5710 5709 5709 5708 5705 5702 5701 5702 5704 5703 5704 5705 5704 5703 5703 5704
5676 5682 5682 5670 5647 5644 5647 5674 5667 5675 5686 5692 5696 5695 5687 5670 5678 5673 5673 5679 5682 5687 5691 5694 5698 5703 5706 5710 5709 5709 5708 5707 5706 5706 5707 5706 5706 5703 5700 5699 5699 5698 5700 5699 5701 5701 5700 5700 5701
5674 5676 5663 5654 5641 5638 5651 5666 5671 5677 5681 5682 5677 5681 5673 5662 5667 5665 5668 5671 5676 5678 5681 5685 5687 5692 5697 5700 5703 5703 5704 5704 5703 5703 5703 5702 5700 5699 5697 5697 5695 5695 5697 5697 5697 5698 5697 5695 5697
5669 5666 5658 5644 5645 5658 5655 5654 5665 5669 5673 5675 5671 5658 5661 5660 5660 5657 5660 5663 5667 5671 5675 5677 5677 5680 5684 5690 5693 5697 5699 5699 5698 5697 5698 5698 5697 5696 5693 5694 5692 5692 5693 5695 5695 5694 5694 5691 5692
5663 5652 5641 5642 5648 5656 5641 5649 5657 5657 5653 5653 5660 5644 5645 5646 5651 5652 5654 5656 5658 5662 5665 5668 5670 5670 5672 5677 5682 5687 5690 5692 5693 5693 5694 5693 5693 5693 5693 5691 5690 5690 5690 5691 5693 5693 5691 5689 5689
5647 5643 5628 5627 5641 5641 5636 5635 5646 5638 5638 5637 5638 5639 5638 5641 5645 5644 5647 5648 5651 5652 5654 5657 5659 5661 5665 5667 5671 5675 5681 5684 5686 5688 5690 5689 5688 5687 5688 5689 5689 5687 5688 5688 5689 5690 5689 5687 5686
5642 5628 5624 5637 5638 5630 5629 5632 5628 5629 5627 5625 5630 5625 5631 5628 5632 5636 5637 5637 5638 5640 5642 5643 5646 5649 5652 5657 5661 5665 5670 5677 5679 5681 5683 5684 5683 5682 5682 5685 5687 5686 5686 5685 5685 5684 5685 5683 5683
5629 5624 5627 5626 5619 5615 5619 5621 5620 5617 5619 5623 5625 5608 5610 5612 5620 5626 5628 5626 5624 5626 5628 5632 5633 5636 5640 5644 5649 5655 5659 5666 5671 5675 5677 5677 5678 5677 5679 5680 5683 5682 5683 5683 5682 5680 5680 5681 5679
5628 5605 5603 5606 5606 5607 5605 5603 5603 5609 5611 5607 5607 5605 5606 5610 5610 5607 5606 5608 5609 5609 5611 5615 5618 5620 5626 5631 5637 5643 5649 5655 5660 5668 5670 5671 5673 5675 5675 5676 5678 5678 5677 5678 5680 5677 5676 5676 5676
5605 5587 5602 5602 5597 5593 5590 5588 5588 5595 5587 5591 5593 5593 5595 5596 5593 5587 5585 5586 5590 5591 5593 5594 5598 5604 5609 5617 5624 5630 5637 5645 5650 5656 5662 5665 5666 5669 5670 5672 5673 5674 5672 5673 5675 5675 5674 5672 5672
5596 5590 5593 5591 5589 5586 5583 5580 5580 5579 5579 5583 5576 5579 5580 5577 5578 5573 5570 5570 5570 5570 5572 5575 5579 5585 5592 5597 5606 5616 5623 5631 5639 5644 5653 5658 5660 5662 5664 5667 5667 5668 5669 5667 5666 5667 5667 5666 5664
5592 5591 5588 5585 5583 5578 5572 5572 5566 5566 5565 5573 5566 5570 5570 5567 5561 5556 5552 5553 5552 5553 5555 5559 5562 5567 5574 5581 5588 5598 5607 5614 5624 5632 5639 5648 5653 5656 5659 5661 5664 5664 5663 5661 5658 5656 5657 5658 5659
5582 5576 5579 5579 5573 5571 5566 5556 5553 5559 5556 5559 5562 5559 5552 5550 5542 5538 5536 5536 5538 5537 5538 5541 5545 5549 5556 5565 5574 5581 5592 5600 5608 5618 5626 5631 5643 5650 5653 5656 5659 5661 5660 5659 5656 5654 5651 5651 5652
5566 5565 5566 5569 5567 5563 5556 5547 5542 5549 5557 5553 5547 5543 5540 5528 5522 5520 5519 5517 5517 5520 5522 5525 5526 5531 5540 5548 5556 5565 5574 5584 5594 5603 5612 5619 5627 5637 5647 5651 5655 5657 5659 5659 5654 5653 5647 5644 5644
5560 5556 5560 5560 5559 5553 5546 5541 5528 5538 5537 5539 5536 5532 5516 5510 5506 5501 5498 5497 5497 5499 5502 5505 5510 5514 5519 5527 5537 5548 5559 5568 5579 5589 5596 5605 5613 5621 5632 5644 5648 5652 5648 5648 5652 5646 5641 5639 5639
5553 5542 5522 5552 5548 5546 5535 5522 5530 5526 5525 5520 5518 5507 5499 5494 5490 5483 5480 5477 5477 5477 5480 5485 5489 5493 5499 5506 5516 5529 5541 5552 5565 5575 5583 5592 5599 5607 5618 5628 5638 5632 5635 5644 5644 5644 5640 5637 5635
5507 5480 5517 5517 5534 5529 5523 5522 5529 5519 5513 5503 5493 5487 5484 5476 5470 5467 5464 5461 5460 5461 5462 5466 5469 5474 5479 5485 5495 5509 5523 5535 5547 5559 5569 5578 5585 5594 5603 5615 5620 5625 5630 5629 5638 5637 5637 5634 5632
5475 5476 5509 5495 5515 5509 5502 5503 5522 5508 5499 5489 5482 5478 5466 5461 5459 5455 5452 5450 5447 5446 5446 5449 5453 5456 5461 5469 5475 5485 5499 5515 5529 5542 5554 5563 5571 5580 5589 5601 5611 5616 5619 5624 5618 5621 5624 5629 5627
5512 5502 5486 5492 5506 5492 5498 5497 5499 5496 5485 5472 5470 5463 5456 5448 5448 5443 5439 5436 5434 5431 5429 5430 5434 5439 5444 5451 5458 5467 5477 5490 5509 5524 5537 5548 5558 5566 5576 5588 5596 5604 5614 5621 5617 5617 5618 5618 5611
5500 5463 5462 5487 5499 5480 5478 5479 5492 5486 5476 5468 5462 5458 5444 5437 5433 5431 5426 5421 5415 5410 5407 5408 5413 5420 5427 5431 5440 5450 5462 5477 5488 5506 5521 5533 5543 5553 5561 5572 5581 5590 5601 5608 5616 5613 5615 5615 5615
5487 5462 5460 5469 5469 5463 5459 5455 5488 5481 5472 5466 5460 5445 5430 5423 5417 5415 5410 5402 5396 5390 5386 5386 5391 5395 5403 5409 5421 5435 5449 5463 5478 5493 5506 5519 5528 5537 5545 5554 5564 5573 5583 5599 5608 5615 5613 5608 5611
5453 5491 5480 5462 5421 5409 5444 5402 5453 5471 5460 5454 5439 5423 5414 5404 5402 5396 5390 5384 5377 5374 5371 5371 5375 5378 5382 5387 5399 5415 5432 5450 5466 5479 5492 5506 5516 5520 5530 5539 5549 5559 5569 5582 5595 5603 5607 5606 5605
5474 5477 5469 5458 5393 5406 5410 5380 5436 5461 5449 5439 5422 5415 5403 5394 5386 5380 5373 5367 5360 5358 5358 5357 5359 5360 5362 5365 5375 5393 5416 5437 5451 5464 5476 5492 5502 5510 5518 5525 5533 5545 5555 5570 5582 5589 5596 5604 5604
5474 5453 5445 5429 5383 5371 5382 5379 5428 5439 5443 5424 5413 5404 5395 5384 5377 5369 5361 5354 5348 5344 5340 5338 5341 5344 5346 5349 5358 5373 5400 5428 5440 5452 5465 5480 5492 5501 5505 5512 5520 5530 5542 5554 5573 5583 5592 5599 5601
5441 5404 5367 5378 5363 5392 5357 5391 5423 5433 5423 5417 5402 5391 5383 5379 5368 5362 5355 5347 5340 5333 5328 5329 5331 5332 5334 5338 5346 5358 5387 5412 5427 5440 5453 5469 5480 5489 5495 5503 5511 5520 5529 5540 5554 5573 5584 5592 5599
5428 5397 5368 5349 5365 5377 5352 5374 5426 5429 5419 5410 5397 5387 5381 5373 5366 5357 5349 5342 5335 5330 5325 5322 5322 5324 5326 5330 5338 5349 5372 5394 5412 5427 5441 5456 5466 5476 5486 5494 5501 5508 5517 5525 5537 5561 5576 5587 5597
5413 5389 5406 5345 5321 5351 5361 5393 5432 5421 5393 5396 5389 5387 5374 5367 5358 5350 5343 5337 5331 5327 5324 5320 5319 5322 5326 5330 5337 5349 5367 5382 5398 5414 5429 5439 5453 5464 5472 5481 5490 5501 5509 5516 5529 5550 5566 5580 5589
5406 5405 5373 5338 5333 5326 5353 5345 5416 5391 5382 5377 5386 5371 5364 5356 5350 5347 5339 5331 5326 5323 5322 5320 5320 5321 5326 5334 5342 5354 5367 5379 5390 5406 5418 5428 5440 5450 5459 5468 5478 5491 5502 5514 5516 5535 5558 5569 5580
5377 5370 5362 5356 5363 5328 5322 5378 5397 5395 5372 5367 5371 5366 5356 5344 5345 5341 5336 5325 5321 5318 5317 5317 5319 5322 5326 5333 5344 5355 5366 5377 5386 5397 5407 5420 5428 5438 5450 5458 5469 5483 5495 5505 5516 5534 5554 5566 5572
5402 5386 5390 5356 5341 5352 5358 5414 5386 5385 5376 5364 5371 5362 5355 5340 5342 5339 5331 5325 5318 5314 5312 5313 5317 5321 5326 5334 5343 5354 5363 5371 5379 5389 5401 5412 5420 5429 5441 5452 5462 5475 5487 5498 5507 5523 5543 5553 5558